Location: Ponte Samoggia
(44.5667°N, 11.1333°E)
Time: 21:36:23
(UTC+00:00)

Meteor 2-10 Rocket - Pass Details

Date: 26 May 2022
Orbit: 733 x 885 km, 81.2° (Epoch: 29 June)

Event Time Altitude Azimuth Distance (km) Brightness Sun altitude
Rises 00:31:17 0° 348° (NNW) 3,458 7.8 -21.9°
Reaches altitude 10° 00:33:46 10° 347° (NNW) 2,500 6.9 -21.8°
Maximum altitude 00:39:27 79° 262° (W) 854 3.6 -21.4°
Enters shadow 00:41:17 43° 183° (S) 1,138 3.9 -21.3°
